DECAYED
Showing default

FLOCK 1C 8, 40040 (Decayed)

Orbit data source: Space-Track

FLOCK 1C 8, 40040 was a payload satellite owned by Planet Labs (US) in LEO that was launched on Thu, 19 Jun 2014 UTC via a DNEPR launch vehicle from the Orenburg, Russia (OREN). Payload-class satellites include a variety of spacecraft equipped with specific instruments for various scientific and technological missions. These include communications satellites like Starlink; space stations such as the ISS; scientific satellites like the Hubble; Earth observation satellites from companies like Planet Labs, Umbra, and HawkEye 360; GPS; miniature CubeSats for education and research; and military/defense satellites.

Not visible in the next 10 days
Identifier
40040, 2014-033AG
Orbit
Decayed
Last TLE update
7 months ago
Origin
Manufacturer
Planet Labs
Mission
Decayed Commercial Imaging
Bus & Motor
CUBESAT 3U, Unknown motor
Mass
4.25 kg wet, 4.25 kg dry
Launch date (UTC)
2014-06-19 (11 years ago)
Launch vehicle
DNEPR
Launch site
Orenburg, Russia (OREN)
Object type
Payload
Rocket body
Debris
Shape & HBR
Box + 2 Pan, 0.3 m
Radar Cross Section
0.108 m², Small (<0.1 m²)

Expand to show TLE details & history

TLE from 7 months ago
0 FLOCK 1C 8
1 40040U 14033AG  24349.51121899  .16112920  30564-5  17446-2 0  9996
2 40040  98.0388  18.5335 0005492 235.1422 124.9358 16.37456129572415
Epoch: 2024-12-14T12:16Z
TLE epoch observation values (Epoch: 2024-12-14T12:16:09.32Z)
Latitude
-0.00006°
Longitude
110.83288°
Altitude
177.868 km
Speed
7.798 km/s
True Right ascension
01h 14m 08s
True Declination
0° 00' 00"
Sunlit
Object was in full shadow at epoch
Visualization orbit readout
Visualization observer readout
Orbital elements
Apogee altitude
173.015 km
Perigee altitude
165.823 km
Semi-major axis
6,547.556 km
Eccentricity
0.00055
Inclination
98.0388°
RAAN
18.5335°
Arg. of periapsis
235.1422°
True anomaly
Unknown
Mean anomaly
124.9358°
Eccentric anomaly
Unknown
Mean motion
4.09661 °/min
Orbital period
87.88 mins
BSTAR
0.0017446
Loading maneuver chart data...
Loading SW <> Apogee altitude chart data...
Loading historical data...
Loading historical data...
Loading historical data...
Loading historical data...
Loading historical data...
Loading historical data...
Loading historical data...

FLOCK 1C 8 Visibility

Observer location: undefined°, undefined°

This satellite is decayed
Span
Click to sort rows by Start time (UTC) header in descending order
Start Az.
Max El. time (UTC)
Max El. Az.
Max El.
End time (UTC)
End Az.
|